Buenos Aires, Argentina

3:45 AM America en Julio 23, 2018 (GMT +0000)
Jorge Newbery Aeroparque

Tiempo Historia de SABE - Julio, 2018

Change the Weather History Date:

Jueves, Julio 12, 2018

  Actual Average Record
Temperature  
Temperatura media 54 ° F -  
Temperatura máxima 60 ° F 59 ° F 75 ° F (2006)
Temperatura mínima 49 ° F 47 ° F 35 ° F (2007)
Degree Days  
Grados día de calefacción 10    
Growing Degree Days 4 (Base 50)    
Moisture  
Punto de rocío 48 ° F    
Average Humidity 77    
Maximum Humidity 94    
Minimum Humidity 47    
Precipitación  
Precipitación 0.00 pul 0.08 pul - ()
Presión al nivel del mar  
Presión al nivel del mar 30.11 pul    
Viento  
Velocidad del viento 9 mph ()    
Velocidad máxima del viento 14 mph    
Max Gust Speed -    
Visibilidad 6.1 Millas    
Eventos      
Averages and records for this station are not official NWS values.
T = Trace of Precipitation, MM = Missing Value Source: Averaged Metar Reports

Daily Weather History Graph

Daily Weather History Graph

Search for Another Location

Airport or City:

Astronomía

Jul. 12, 2018 Salida Puesta
Hora real 7:59 AM -03 5:59 PM -03
Crepúsculo civil 7:31 AM -03 6:27 PM -03
Crepúsculo náutico 7:00 AM -03 6:58 PM -03
Crepúsculo astronómico 6:30 AM -03 7:28 PM -03
Luna 7:17 AM -03 (7/12) 5:41 PM -03 (7/12)
Horas de luz 10h 55m
Horas de luz
10h 00m
Creciente menguante, 0% of the Moon is Illuminated
Jul 12
Creciente menguante
Jul 12
Nueva
Jul 19
Cuarto creciente
Jul 27
Luna llena
Ago 4
Cuarto menguante

Hourly Weather History & Observations

Hora (-03) Temp. Punto de rocío Humedad Presión Visibilidad Wind Dir Velocidad del viento Velocidad de ráfagas Precip Eventos Condiciones
12:00 AM 54 ° F 50 ° F 81% 30.26 pul 6 mi NNE 6.9 mph - -   Despejado
12:00 AM 53.6 ° F 50.0 ° F 88% 30.24 pul - Norte 8.1 mph - N/A   Despejado
1:00 AM 53.6 ° F 50.0 ° F 88% 30.24 pul - Norte 9.2 mph - N/A   Despejado
2:00 AM 53.6 ° F 50.0 ° F 88% 30.21 pul - Norte 12.7 mph - N/A   Despejado
3:00 AM 53 ° F 49 ° F 82% 30.21 pul 6 mi Norte 12.7 mph - -  
3:00 AM 53.6 ° F 50.0 ° F 88% 30.18 pul - Norte 12.7 mph - N/A   Despejado
4:00 AM 51.8 ° F 50.0 ° F 94% 30.18 pul - NNO 9.2 mph - N/A   Despejado
5:00 AM 51.8 ° F 48.2 ° F 88% 30.15 pul 6.2 mi NNO 11.5 mph - N/A   Nubes dispersas
6:00 AM 50 ° F 48 ° F 89% 30.17 pul 6 mi NO 8.1 mph - -   Muy nublado
6:00 AM 50.0 ° F 48.2 ° F 94% 30.15 pul 6.2 mi NO 8.1 mph - N/A   Muy nublado
7:00 AM 50.0 ° F 48.2 ° F 94% 30.15 pul 6.2 mi NO 10.4 mph - N/A   Muy nublado
8:00 AM 50.0 ° F 46.4 ° F 87% 30.15 pul 6.2 mi NNO 11.5 mph - N/A   Nubes dispersas
9:00 AM 49 ° F 46 ° F 87% 30.17 pul 6 mi NNO 12.7 mph - -   Muy nublado
9:00 AM 50.0 ° F 46.4 ° F 87% 30.15 pul 6.2 mi NNO 12.7 mph - N/A   Muy nublado
10:00 AM 51.8 ° F 48.2 ° F 88% 30.15 pul 6.2 mi NNO 11.5 mph - N/A   Nubes dispersas
11:00 AM 53.6 ° F 48.2 ° F 82% 30.12 pul - NNO 11.5 mph - N/A   Despejado
12:00 PM 56 ° F 49 ° F 71% 30.14 pul 6 mi NNO 8.1 mph - -   Nubes dispersas
12:00 PM 55.4 ° F 50.0 ° F 82% 30.12 pul 6.2 mi NNO 8.1 mph - N/A   Parcialmente nublado
1:00 PM 59.0 ° F 46.4 ° F 63% 30.06 pul 6.2 mi NO 11.5 mph - N/A   Muy nublado
2:00 PM 59.0 ° F 46.4 ° F 63% 30.06 pul 6.2 mi NO 13.8 mph - N/A   Muy nublado
3:00 PM 60 ° F 45 ° F 47% 30.06 pul 6 mi ONO 9.2 mph - -   Parcialmente nublado
3:00 PM 60.8 ° F 44.6 ° F 55% 30.04 pul 6.2 mi ONO 9.2 mph - N/A   Muy nublado
4:00 PM 60.8 ° F 44.6 ° F 55% 30.04 pul 6.2 mi NO 11.5 mph - N/A   Muy nublado
5:00 PM 59.0 ° F 46.4 ° F 63% 30.04 pul 6.2 mi NO 6.9 mph - N/A   Muy nublado
6:00 PM 57 ° F 46 ° F 56% 30.03 pul 6 mi NO 9.2 mph - -   Despejado
6:00 PM 57.2 ° F 46.4 ° F 67% 30.01 pul - NO 9.2 mph - N/A   Despejado
7:00 PM 55.4 ° F 48.2 ° F 77% 30.01 pul - NO 9.2 mph - N/A   Despejado
8:00 PM 55.4 ° F 46.4 ° F 72% 30.01 pul - NO 6.9 mph - N/A   Despejado
9:00 PM 54 ° F 45 ° F 63% 30.04 pul 6 mi NO 6.9 mph - -   Despejado
9:00 PM 53.6 ° F 46.4 ° F 77% 30.04 pul - NO 6.9 mph - N/A   Despejado
10:00 PM 53.6 ° F 46.4 ° F 77% 30.04 pul - NO 6.9 mph - N/A   Despejado
11:00 PM 53.6 ° F 46.4 ° F 77% 30.04 pul - NO 8.1 mph - N/A   Despejado